Regional Weather Roundup
Issued by NWS Bismarck, ND

Home | Current Version | Previous Version | Text Only | Print | Product List | Glossary Off
Versions: 1 2 3 4 5 6 7 8 9 10 11 12 13 14 15 16 17 18 19 20 21 22 23 24 25 26 27 28 29 30 31 32 33 34 35 36 37 38 39 40 41 42 43 44 45 46 47 48 49 50

000
ASUS43 KBIS 301310
RWRBIS

NWR BROADCAST TEXT
NATIONAL WEATHER SERVICE BISMARCK ND
800 AM CDT SAT APR 30 2016

NOTE: "FAIR" INDICATES FEW OR NO CLOUDS BELOW 12,000 FEET WITH NO
SIGNIFICANT WEATHER AND/OR OBSTRUCTIONS TO VISIBILITY.


CITY           SKY/WX    TMP DP  RH WIND       PRES   REMARKS
WILLISTON      SUNNY     43  31  62 N6        30.25R
MINOT          SUNNY     42  27  55 CALM      30.26R
MINOT AFB      SUNNY     39  28  63 N6        30.27R
BISMARCK       CLOUDY    43  34  70 NE15      30.17R
DICKINSON      MOSUNNY   35  29  78 N8        30.15R
GARRISON         N/A     43  32  65 NE8       30.22R
HETTINGER ARPT CLOUDY    39  32  76 NE12      30.14R
JAMESTOWN      CLOUDY    44  33  65 E14       30.18S
BEACH          FAIR      39  34  81 E6        30.22R
HAZEN          FAIR      39  32  75 NE10      30.22F
LINTON         FAIR      41  37  87 E9        30.16R
MANDAN         FAIR      43  32  65 NE12      30.18R
OAKES            N/A    N/A N/A N/A MISG        N/A
RUGBY          FAIR      41  32  70 E14       30.28R
STANLEY        FAIR      39  30  70 NE6       30.28R
WATFORD CITY   FAIR      39  32  75 NE3       30.24R
$$

CITY           SKY/WX    TMP DP  RH WIND       PRES   REMARKS
GRAND FORKS    MOSUNNY   44  34  67 E9        30.28R
GRAND FORKS AF SUNNY     40  32  73 E6        30.29R
DEVILS LAKE    SUNNY     43  33  68 E10       30.27R
FARGO          MOSUNNY   45  32  60 NE13      30.20S
CANDO          FAIR      43  28  56 NE9       30.31R
CAVALIER       FAIR      39  32  75 N3        30.33R
GRAFTON        FAIR      41  34  75 E6        30.33R
GWINNER        FAIR      43  36  75 NE12      30.15R
LANGDON        FAIR      41  28  60 E10       30.30R
ROLLA          FAIR      39  27  60 N8        30.31R
WALHALLA       FAIR      37  32  81 NW3       30.34R
$$

CITY           SKY/WX    TMP DP  RH WIND       PRES   REMARKS
ABERDEEN       CLOUDY    43  36  76 NE15      30.10R
MOBRIDGE       CLOUDY    44  39  82 N12       30.07R
BUFFALO          N/A     40  34  79 NE9       30.05R
RAPID CITY     CLOUDY    40  37  89 N13       30.05R
GLASGOW        CLOUDY    44  33  65 E12       30.20R
SIDNEY         SUNNY     39  30  70 N9        30.24R
WOLF POINT     SUNNY     38  31  76 E9        30.24R
GLENDIVE       CLOUDY    41  32  70 NE9       30.22R
MILES CITY     CLOUDY    44  37  76 NE12      30.14R
BAKER          CLOUDY    40  32  73 NE16      30.15R
$$

CITY           SKY/WX    TMP DP  RH WIND       PRES   REMARKS
BILLINGS       CLOUDY    40  36  86 NE7       30.11R
GREAT FALLS    CLOUDY    37  35  92 NW3       30.12R
REGINA         SUNNY     41  25  52 SE13      30.32R
ESTEVAN        MOSUNNY   37  27  65 E7        30.30R
$$




USA.gov is the U.S. government's official web portal to all federal, state and local government web resources and services.